Regional Weather Roundup
Issued by NWS Portland, ME

Home | Current Version | Previous Version | Text Only | Print | Product List | Glossary On
Versions: 1 2 3 4 5 6 7 8 9 10 11 12 13 14 15 16 17 18 19 20 21 22 23 24 25 26 27 28 29 30 31 32 33 34 35 36 37 38 39 40 41 42 43 44 45 46 47 48 49 50
000
ASUS41 KGYX 010410
RWRGYX
WEATHER ROUNDUP FOR MAINE AND NEW HAMPSHIRE
NATIONAL WEATHER SERVICE GRAY ME
1200 AM EDT WED OCT 01 2014

MEZ002-005-006-010-012-015-018-020-021-024-026-027-029-010500-
MAINE

CITY           SKY/WX    TMP DP  RH WIND       PRES   REMARKS
PORTLAND       CLOUDY    57  51  80 N7        30.07S
SANFORD        CLOUDY    55  52  88 N7        30.06F
BAR HARBOR     CLOUDY    55  55 100 N5        30.07S
WISCASSET      CLOUDY    57  52  83 CALM      30.08S
ROCKLAND       CLOUDY    55  54  94 NE7       30.06R
FRYEBURG       CLOUDY    57  53  86 N3        30.09S
LEWISTONAUBURN CLOUDY    57  50  77 N5        30.08S
AUGUSTA        CLOUDY    56  50  80 N6        30.08F
WATERVILLE     CLOUDY    55  48  76 N7        30.04S
BANGOR         MOCLDY    55  51  86 NE5       30.09S
GREENVILLE       N/A     53  49  86 E6        30.09R
MILLINOCKET    CLOUDY    53  48  83 NE3       30.12S
HOULTON        CLOUDY    51  46  83 N7        30.11S
PRESQUE ISLE   CLOUDY    48  43  81 N6        30.12S
FRENCHVILLE    CLOUDY    44  43  96 N7        30.12S
CARIBOU        CLOUDY    48  45  89 N5        30.12S
$$

NHZ002-005-008-009-011-012-014-010500-
NEW HAMPSHIRE

CITY           SKY/WX    TMP DP  RH WIND       PRES   REMARKS
PORTSMOUTH     CLOUDY    57  53  86 N8        30.03F
ROCHESTER      CLOUDY    57  54  89 N6        30.05F
NASHUA         LGT RAIN  58  57  96 CALM      30.06R
MANCHESTER     DRIZZLE   59  53  80 NE3       30.03S
CONCORD        CLOUDY    58  53  84 N6        30.06S
LACONIA        CLOUDY    57  52  82 NE6       30.06S
PLYMOUTH       CLOUDY    57  56  96 CALM      30.07S
BERLIN         CLOUDY    52  51  97 CALM      30.09R
WHITEFIELD     MOCLDY    53  50  89 CALM      30.07S
JAFFREY        CLOUDY    56  54  93 VRB3      30.06F
LEBANON        CLOUDY    59  53  80 CALM      30.06S
MT WASHINGTON  FOG       41  41 100 NE10        N/A  VSB 1/16
$$

VTZ005-007-008-010500-
VERMONT

CITY           SKY/WX    TMP DP  RH WIND       PRES   REMARKS
ST JOHNSBURY     N/A     55  53  93 MISG      30.05S
MONTPELIER     MOCLDY    51  50  96 CALM      30.10R FOG
BURLINGTON     PTCLDY    56  53  90 N8        30.05R
$$

MAZ007-012-024-CTZ003-RIZ002-NYZ038-NYZ072-010500-
SOUTHERN NEW ENGLAND AND NY

CITY           SKY/WX    TMP DP  RH WIND       PRES   REMARKS
BOSTON         LGT RAIN  57  55  93 N7        30.04R
WORCESTER      CLOUDY    54  54 100 NE9       30.04S
NANTUCKET      CLOUDY    63  61  94 N14       29.95F FOG
PROVIDENCE     CLOUDY    57  55  93 N10       30.02F
HARTFORD       CLOUDY    59  56  89 N6        30.02S
ALBANY         CLOUDY    61  55  81 CALM      30.02S
NEW YORK CITY  LGT RAIN  63  58  83 N7        29.99S
$$

ANZ081-ANZ082-ANZ150-NHZ014-MEZ023>029-010500-
COASTAL MARINE OBSERVATIONS

STATION/POSITION TIME  TEMP    WIND        PRES    WAVE
                       AIR SEA DIR/SP/G            HT/PER
                 (UTC) (F)     (DEG/KT/KT) (MB)    (FT/S)
MATINICUS ROCK   0400           40/ 11/ 12 1017.3R
PORTLAND WX BUOY 0350   58 59   20/ 10/ 12 1017.7F   2/14
WELLS            0300   57 57   30/  2/  3 1017.2R
ISLE OF SHOALS   0400   57      40/ 17/ 18 1016.8R
JEFFREYS LEDGE   0321      58                N/A     4/ 6
CASHES LEDGE BUO 0350   56 59              1016.4S   4/ 5
$$

.............KEY..............
   WCI - WIND CHILL
   TC  - TEMPERATURE IN CELSIUS
   VSB - VISIBILITY IN MILES
   HX  - HEAT INDEX
   FAIR- INDICATES FEW OR NO CLOUDS BELOW 12,000 FT, WITH NO
         SIGNIFICANT WEATHER AND/OR OBSTRUCTIONS TO VISIBILITY.





USA.gov is the U.S. government's official web portal to all federal, state and local government web resources and services.